"Pseudo-MPEC" for P10LfOy

Created 2019 Jan 15 11:18:20 UT using Find_Orb

Click here for an explanation of pseudo-MPECs

 
 Astrometry: 
     P10LfOy  C2019 01 09$TIXHbDmOS:N9nh2#S0sIOb.DAstrometry+JsJMvYP.'l-Nv`BJF51
     P10LfOy  C2019 01 09vgn%PI5'vS+$*dT8E!Etw_pG8redacted;-9$^TCRYs.]b5Ypu7_F51
     P10LfOy  C2019 01 09DQ)kjk^HmBjN[\rL,vGCv`iiy6[242Ya=$._x3J4CPtsQp7a9kRtF51
     P10LfOy KC2019 01 11ZcAh#HAj]:,ZD'Tuy$g`=Xlk[YQ/Yniv62y8SDclick068K]w%XvH21
     P10LfOy KC2019 01 11kmBu7EL'W%sdI)UbEEC_WshW0hhnY5d!7`l7fMHkhereF3;OB#uHH21
     P10LfOy KC2019 01 11jV=Y$Pnh+`(RQn%y:LfU!.2P0hHqGnFl$=%\GsJS3-+U0o\^J8G6H21
     P10LfOy  C2019 01 149OrqGwSnJW!8d,V@qN5-g:E4*4E/%NirXaiY8BMbS)518`_forMnF51
     P10LfOy  C2019 01 14`5`h$X?GYWCa?wjtoY+-@D4hqV'e\/KqI:O(nn)NKM5D$Ys8#2:MF51
     P10LfOy  C2019 01 14WnexplanationX`vLTTY-C$ev^;'2(O]dACU+U#=oDJZx)ABa,x^F51

Station data:
(F51) Pan-STARRS 1, Haleakala  (N20.707235 W156.255910)  US/Hawaii.
   Observers N. Primak, A. Schultz, S. Watters, J. Thiel, T. Goggia. Measurer
   PS1 Science Consortium. 1.8-m Ritchey-Chrétien + CCD.
(H21) Astronomical Research Observatory, Westfield  (N39.483057 W87.968270)
   US/Illinois. 0.76-m f/3.0 astrograph + CCD.

Orbital elements:  P10LfOy
   Perihelion 2018 Feb 16.282936 +/- 4.49 TT =  6:47:25 (JD 2458165.782936)
Epoch 2019 Jan 14.0 TT = JDT 2458497.5   Earth MOID: 0.6801   AutoNEOCP
M 135.86419924 +/- 2.0              (J2000 ecliptic)
n   0.40957856 +/- 0.00141          Peri.  255.87365 +/- 1.6
a   1.79574459 +/- 0.00411          Node    81.06095 +/- 0.21
e   0.1070003 +/- 0.00163           Incl.   22.80952 +/- 0.15
P   2.41/878.94d           H 19.8   G  0.15   U  8.4  
q 1.60359933 +/- 0.00077    Q 1.98788985 +/- 0.00747
From 9 observations 2019 Jan. 9-14; mean residual 0".14
Residuals in arcseconds: 
190109 F51  .11+  .01+    190111 H21  .30-  .27+    190114 F51  .11+  .17-    
190109 F51  .17-  .02-    190111 H21  .10+  .19-    190114 F51  .03+  .05+    
190109 F51  .06+  .00     190111 H21  .19+  .07-    190114 F51  .14-  .11+    

Ephemerides (geocentric):
Date (UTC) HH   RA              Dec         delta   r     elong  mag " sig PA
---- -- -- --  -------------   -----------  ------ ------ -----  --- ---- ---
2019 01 15 11  08 58 32.897   +46 37 02.49  1.0256 1.9437 150.7 22.1 .415  47
2019 01 15 12  08 58 29.270   +46 37 51.63  1.0256 1.9438 150.7 22.1 .431  47
2019 01 15 13  08 58 25.639   +46 38 40.73  1.0256 1.9438 150.7 22.1 .448  47
2019 01 15 14  08 58 22.003   +46 39 29.78  1.0256 1.9438 150.7 22.1 .464  47
2019 01 15 15  08 58 18.363   +46 40 18.79  1.0256 1.9439 150.7 22.1 .481  47
2019 01 15 16  08 58 14.719   +46 41 07.75  1.0256 1.9439 150.7 22.1 .498  47
2019 01 15 17  08 58 11.071   +46 41 56.67  1.0256 1.9439 150.7 22.1 .515  47
2019 01 15 18  08 58 07.418   +46 42 45.54  1.0256 1.9440 150.7 22.1 .533  47
2019 01 15 19  08 58 03.761   +46 43 34.37  1.0256 1.9440 150.7 22.1 .550  47
2019 01 15 20  08 58 00.099   +46 44 23.15  1.0256 1.9440 150.7 22.1 .568  47
2019 01 15 21  08 57 56.433   +46 45 11.89  1.0256 1.9441 150.7 22.1 .586  47
2019 01 15 22  08 57 52.764   +46 46 00.58  1.0256 1.9441 150.7 22.1 .604  47
2019 01 15 23  08 57 49.089   +46 46 49.23  1.0256 1.9441 150.7 22.1 .622  47
2019 01 16 00  08 57 45.411   +46 47 37.83  1.0257 1.9442 150.7 22.1 .641  47
2019 01 16 01  08 57 41.728   +46 48 26.38  1.0257 1.9442 150.7 22.1 .660  47
2019 01 16 02  08 57 38.042   +46 49 14.89  1.0257 1.9442 150.7 22.1 .679  47
2019 01 16 03  08 57 34.351   +46 50 03.35  1.0257 1.9443 150.8 22.1 .698  47
2019 01 16 04  08 57 30.655   +46 50 51.77  1.0257 1.9443 150.8 22.1 .717  47
2019 01 16 05  08 57 26.956   +46 51 40.14  1.0257 1.9443 150.8 22.1 .737  47
2019 01 16 06  08 57 23.252   +46 52 28.46  1.0257 1.9444 150.8 22.1 .756  47
2019 01 16 07  08 57 19.545   +46 53 16.74  1.0257 1.9444 150.8 22.1 .776  47
2019 01 16 08  08 57 15.833   +46 54 04.97  1.0257 1.9444 150.8 22.1 .796  46
2019 01 16 09  08 57 12.117   +46 54 53.15  1.0258 1.9445 150.8 22.1 .817  46
2019 01 16 10  08 57 08.397   +46 55 41.29  1.0258 1.9445 150.8 22.1 .837  46
2019 01 16 11  08 57 04.673   +46 56 29.38  1.0258 1.9445 150.8 22.1 .858  46
2019 01 16 12  08 57 00.944   +46 57 17.42  1.0258 1.9446 150.8 22.1 .879  46
2019 01 16 13  08 56 57.212   +46 58 05.42  1.0258 1.9446 150.8 22.1 .900  46
2019 01 16 14  08 56 53.475   +46 58 53.37  1.0258 1.9446 150.8 22.1 .921  46
2019 01 16 15  08 56 49.734   +46 59 41.27  1.0258 1.9447 150.8 22.1 .943  46
2019 01 16 16  08 56 45.990   +47 00 29.12  1.0259 1.9447 150.8 22.1 .964  46
2019 01 16 17  08 56 42.241   +47 01 16.93  1.0259 1.9447 150.8 22.1 .986  46
2019 01 16 18  08 56 38.488   +47 02 04.69  1.0259 1.9448 150.8 22.1 1.01  46
2019 01 16 19  08 56 34.731   +47 02 52.40  1.0259 1.9448 150.8 22.1 1.03  46
2019 01 16 20  08 56 30.970   +47 03 40.06  1.0259 1.9448 150.8 22.1 1.05  46
2019 01 16 21  08 56 27.205   +47 04 27.68  1.0259 1.9449 150.8 22.1 1.08  46
2019 01 16 22  08 56 23.436   +47 05 15.24  1.0260 1.9449 150.8 22.1 1.10  46
2019 01 16 23  08 56 19.664   +47 06 02.76  1.0260 1.9449 150.8 22.1 1.12  46
2019 01 17 00  08 56 15.887   +47 06 50.24  1.0260 1.9450 150.8 22.1 1.14  46
2019 01 17 01  08 56 12.106   +47 07 37.66  1.0260 1.9450 150.8 22.1 1.17  46
2019 01 17 02  08 56 08.321   +47 08 25.03  1.0260 1.9450 150.8 22.1 1.19  46
2019 01 17 03  08 56 04.532   +47 09 12.36  1.0261 1.9451 150.8 22.1 1.22  45
2019 01 17 04  08 56 00.739   +47 09 59.64  1.0261 1.9451 150.8 22.1 1.24  45
2019 01 17 05  08 55 56.942   +47 10 46.87  1.0261 1.9451 150.8 22.1 1.26  45
2019 01 17 06  08 55 53.142   +47 11 34.05  1.0261 1.9452 150.8 22.1 1.29  45
2019 01 17 07  08 55 49.337   +47 12 21.18  1.0261 1.9452 150.8 22.1 1.31  45
2019 01 17 08  08 55 45.529   +47 13 08.26  1.0262 1.9452 150.9 22.1 1.34  45
2019 01 17 09  08 55 41.716   +47 13 55.30  1.0262 1.9453 150.9 22.1 1.36  45
2019 01 17 10  08 55 37.900   +47 14 42.28  1.0262 1.9453 150.9 22.1 1.39  45